HOWARD Weather Reports


time (UTC)temp
F
wind
direction
speed
knots
gust
knots
rain 1hr
in
rain 24hr
in
rain mn
in
humidity
%
barometer
mb
20260509192154 49 0 0.0 2.6 0.00 0.00 0.00 49 1017.8
20260509191154 48 191 1.7 5.2 0.00 0.00 0.00 51 1017.9
20260509190154 47 247 0.9 4.3 0.00 0.00 0.00 55 1018.4
20260509185154 47 161 0.9 4.3 0.00 0.00 0.00 51 1018.4
20260509184154 46 0 0.0 4.3 0.00 0.00 0.00 58 1018.2
20260509183154 46 142 1.7 5.2 0.00 0.00 0.00 55 1018.2
20260509182154 45 299 0.9 4.3 0.00 0.00 0.00 59 1018.2
20260509181228 44 78 1.7 4.3 0.00 0.00 0.00 57 1018.0
20260509181154 44 78 1.7 4.3 0.00 0.00 0.00 57 1018.0
20260509180154 44 0 0.0 3.5 0.00 0.00 0.00 57 1017.9
20260509175154 43 120 1.7 4.3 0.00 0.00 0.00 59 1017.8
20260509174154 43 68 0.9 4.3 0.00 0.00 0.00 59 1017.6
20260509173154 43 27 0.9 5.2 0.00 0.00 0.00 62 1017.5
20260509172154 43 65 2.6 5.2 0.00 0.00 0.00 1017.4
20260509171154 44 0 0.0 5.2 0.00 0.00 0.00 62 1017.4
20260509170154 44 334 0.9 4.3 0.00 0.00 0.00 56 1017.5
20260509165153 44 297 0.9 3.5 0.00 0.00 0.00 52 1017.4
20260509164154 44 41 1.7 3.5 0.00 0.00 0.00 43 1016.7
20260509163154 43 311 0.9 3.5 0.00 0.00 0.00 38 1016.5
20260509162153 42 321 1.7 5.2 0.00 0.00 0.00 37 1016.4
20260509161153 42 329 3.5 6.1 0.00 0.00 0.00 36 1016.3
20260509160153 42 321 1.7 7.0 0.00 0.00 0.00 36 1016.3
20260509155153 42 325 2.6 7.0 0.00 0.00 0.00 37 1016.0
20260509154153 41 296 3.5 7.8 0.00 0.00 0.00 36 1016.0
20260509153153 43 305 3.5 7.8 0.00 0.00 0.00 36 1015.9
20260509152153 41 311 1.7 8.7 0.00 0.00 0.00 36 1015.9
20260509151153 41 299 4.3 9.6 0.00 0.00 0.00 36 1015.8
20260509150153 41 300 4.3 9.6 0.00 0.00 0.00 37 1015.7
20260509145153 40 291 5.2 10.4 0.00 0.00 0.00 37 1015.6
20260509144153 40 282 4.3 9.6 0.00 0.00 0.00 38 1015.6
20260509143153 40 283 7.0 11.3 0.00 0.00 0.00 37 1015.5
20260509142153 40 275 7.0 11.3 0.00 0.00 0.00 39 1015.6
20260509141153 39 274 6.1 12.2 0.00 0.00 0.00 37 1015.6
20260509140153 39 279 5.2 13.0 0.00 0.00 0.00 36 1015.5
20260509135153 39 286 5.2 9.6 0.00 0.00 0.00 38 1015.4
20260509134153 38 286 4.3 10.4 0.00 0.00 0.00 38 1015.4
20260509133153 38 288 5.2 12.2 0.00 0.00 0.00 37 1015.2
20260509132153 38 283 5.2 8.7 0.00 0.00 0.00 37 1015.7
20260509131153 38 276 4.3 12.2 0.00 0.00 0.00 38 1015.6
20260509130153 38 272 5.2 8.7 0.00 0.00 0.00 38 1015.5
20260509125153 38 264 5.2 8.7 0.00 0.00 0.00 39 1015.4
20260509124153 37 270 3.5 7.8 0.00 0.00 0.00 41 1015.3
20260509123153 37 270 4.3 8.7 0.00 0.00 0.00 41 1015.2
20260509122153 37 273 4.3 10.4 0.00 0.00 0.00 41 1015.2
20260509121153 37 274 7.0 11.3 0.00 0.00 0.00 40 1015.1
20260509120153 38 265 6.1 9.6 0.00 0.00 0.00 40 1015.0
20260509115153 37 262 4.3 9.6 0.00 0.00 0.00 41 1014.8
20260509114153 37 258 4.3 9.6 0.00 0.00 0.00 42 1014.7
20260509113153 37 260 6.1 12.2 0.00 0.00 0.00 43 1014.6
20260509112153 37 249 5.2 11.3 0.00 0.00 0.00 43 1014.5
20260509111153 37 260 6.1 10.4 0.00 0.00 0.00 43 1014.5
20260509110153 37 258 7.0 12.2 0.00 0.00 0.00 44 1014.5
20260509105153 37 256 7.8 13.9 0.00 0.00 0.00 45 1014.5
20260509104153 36 255 8.7 14.8 0.00 0.00 0.00 48 1014.4
20260509103153 36 242 7.8 11.3 0.00 0.00 0.00 50 1014.7
20260509102153 36 262 7.0 11.3 0.00 0.00 0.00 51 1014.7
20260509101153 36 248 7.0 11.3 0.00 0.00 0.00 52 1014.5
20260509100153 36 249 7.8 9.6 0.00 0.00 0.00 53 1014.6
20260509095153 36 242 7.0 10.4 0.00 0.00 0.00 55 1015.2
20260509094153 36 265 5.2 10.4 0.00 0.00 0.00 54 1015.4
20260509093153 36 245 6.1 11.3 0.00 0.00 0.00 57 1015.3
20260509092233 36 262 3.5 7.8 0.00 0.00 0.00 59 1015.3
20260509092153 36 262 3.5 7.8 0.00 0.00 0.00 59 1015.3
20260509091153 36 242 4.3 8.7 0.00 0.00 0.00 57 1015.3
20260509090153 36 247 4.3 9.6 0.00 0.00 0.00 57 1015.2
20260509085153 36 236 3.5 9.6 0.00 0.00 0.00 60 1015.2
20260509084153 36 221 1.7 9.6 0.00 0.00 0.00 61 1015.0
20260509083154 36 229 1.7 7.0 0.00 0.00 0.00 61 1015.1
20260509082153 35 223 2.6 5.2 0.00 0.00 0.00 63 1015.0
20260509081153 34 285 1.7 3.5 0.00 0.00 0.00 70 1015.1
20260509080153 34 286 1.7 4.3 0.00 0.00 0.00 69 1015.3
20260509075153 35 286 0.9 3.5 0.00 0.00 0.00 67 1015.2
20260509074153 35 278 1.7 7.0 0.00 0.00 0.00 64 1015.3
20260509073153 35 256 2.6 5.2 0.00 0.00 0.00 65 1015.2
20260509072153 35 269 3.5 8.7 0.00 0.00 0.00 66 1015.1
20260509071153 35 310 0.9 5.2 0.00 0.00 0.00 69 1015.0
20260509070153 35 329 0.9 3.5 0.00 0.00 0.00 67 1015.0
20260509065153 35 308 0.9 1.7 0.00 0.00 0.00 69 1014.8
20260509064426 35 0 0.0 4.3 0.00 0.00 0.00 66 1015.1
20260509064153 35 0 0.0 4.3 0.00 0.00 0.00 66 1015.1
20260509063153 35 307 0.9 6.1 0.00 0.00 0.00 65 1014.9
20260509062153 36 270 0.9 4.3 0.00 0.00 0.00 1014.9
20260509061153 36 273 2.6 4.3 0.00 0.00 0.00 64 1014.8
20260509060153 36 276 3.5 11.3 0.00 0.00 0.00 62 1014.7
20260509055251 36 266 4.3 9.6 0.00 0.00 0.00 65 1014.7
20260509055153 36 266 4.3 9.6 0.00 0.00 0.00 65 1014.7
20260509054153 36 302 2.6 7.0 0.00 0.00 0.00 64 1014.7
20260509053153 37 300 3.5 8.7 0.00 0.00 0.00 62 1014.8
20260509052153 37 286 1.7 14.8 0.00 0.00 0.00 60 1014.6
20260509051153 37 298 7.0 14.8 0.00 0.00 0.00 62 1014.4
20260509050153 38 289 5.2 15.6 0.00 0.00 0.00 60 1014.5
20260509045153 37 288 7.0 14.8 0.00 0.00 0.00 61 1014.5
20260509044153 37 283 5.2 16.5 0.00 0.00 0.00 60 1014.7
20260509043153 38 263 6.1 14.8 0.00 0.00 0.00 58 1014.5
20260509042153 38 257 5.2 13.0 0.00 0.00 0.00 56 1014.6
20260509041153 38 274 9.6 15.6 0.00 0.00 0.00 56 1014.5
20260509040153 39 256 6.1 19.1 0.00 0.00 0.00 54 1014.5
20260509035153 39 273 8.7 22.6 0.00 0.00 0.00 53 1015.2
20260509034153 39 265 7.8 18.2 0.00 0.00 0.00 1015.1
20260509033153 39 259 7.8 20.0 0.00 0.00 0.00 1015.1
20260509032153 40 285 8.7 15.6 0.00 0.00 0.00 49 1014.9
20260509031153 42 266 7.0 13.0 0.00 0.00 0.00 50 1014.8
20260509030153 40 239 5.2 8.7 0.00 0.00 0.00 49 1014.8
20260509025153 41 264 5.2 10.4 0.00 0.00 0.00 48 1014.7
20260509024153 42 268 3.5 14.8 0.00 0.00 0.00 49 1014.6
20260509023153 43 264 5.2 7.8 0.00 0.00 0.00 49 1014.5
20260509022153 44 265 3.5 7.8 0.00 0.00 0.00 50 1014.4
20260509021241 44 287 5.2 8.7 0.00 0.00 0.00 48 1014.5
20260509021153 44 287 5.2 8.7 0.00 0.00 0.00 48 1014.5
20260509020153 45 304 2.6 11.3 0.00 0.00 0.00 50 1014.4
20260509015153 45 322 1.7 7.8 0.00 0.00 0.00 47 1014.3
20260509014233 45 282 4.3 11.3 0.00 0.00 0.00 51 1014.4
20260509014153 45 282 4.3 11.3 0.00 0.00 0.00 51 1014.4
20260509013153 46 294 7.8 12.2 0.00 0.00 0.00 50 1014.4
20260509012153 46 263 4.3 13.0 0.00 0.00 0.00 47 1014.4
20260509011153 46 309 3.5 9.6 0.00 0.00 0.00 53 1014.3
20260509010153 46 273 1.7 11.3 0.00 0.00 0.00 54 1014.3
20260509005153 46 322 6.1 11.3 0.00 0.00 0.00 51 1014.4
20260509004153 46 291 2.6 11.3 0.00 0.00 0.00 53 1014.5
20260509003153 46 288 6.1 12.2 0.00 0.00 0.00 51 1014.7
20260509002153 47 279 6.1 13.0 0.00 0.00 0.00 52 1014.7
20260509001153 48 266 6.1 13.0 0.00 0.00 0.00 42 1014.6
20260509000153 48 298 6.1 13.9 0.00 0.00 0.00 46 1014.6
20260508235236 48 270 7.8 13.9 0.00 0.00 0.00 36 1014.5
20260508235153 48 270 7.8 13.9 0.00 0.00 0.00 36 1014.5
20260508234153 48 276 5.2 14.8 0.00 0.00 0.00 42 1014.5
20260508233307 48 258 7.0 11.3 0.00 0.00 0.00 42 1014.5
20260508233153 48 258 7.0 11.3 0.00 0.00 0.00 42 1014.5
20260508232227 48 250 5.2 11.3 0.00 0.00 0.00 42 1014.5
20260508232152 48 250 5.2 11.3 0.00 0.00 0.00 42 1014.5
20260508231152 47 241 6.1 10.4 0.00 0.00 0.00 46 1014.5
20260508230152 45 263 1.7 7.0 0.00 0.00 0.00 54 1014.6
20260508225225 44 283 3.5 7.0 0.00 0.00 0.00 56 1014.6
20260508225152 44 283 3.5 7.0 0.00 0.00 0.00 56 1014.6
20260508224153 44 359 1.7 7.0 0.00 0.00 0.00 56 1014.6
20260508223152 44 36 2.6 7.0 0.00 0.00 0.00 54 1014.4
20260508222152 45 355 3.5 7.0 0.00 0.00 0.00 51 1014.5
20260508221152 46 14 1.7 6.1 0.00 0.00 0.00 49 1014.3
20260508220152 47 355 2.6 7.0 0.00 0.00 0.00 49 1014.5
20260508215152 48 285 0.9 4.3 0.00 0.00 0.00 49 1014.4
20260508214152 48 289 1.7 4.3 0.00 0.00 0.00 50 1014.4
20260508213152 48 353 0.9 4.3 0.00 0.00 0.00 49 1014.5
20260508212152 48 0 0.0 2.6 0.00 0.00 0.00 52 1014.4
20260508211152 47 298 2.6 4.3 0.00 0.00 0.00 53 1014.5
20260508210152 49 344 0.9 4.3 0.00 0.00 0.00 50 1014.5
20260508205152 49 303 0.9 5.2 0.00 0.00 0.00 49 1014.6
20260508204152 49 273 0.9 6.1 0.00 0.00 0.00 51 1014.5
20260508203152 49 266 1.7 5.2 0.00 0.00 0.00 44 1014.4
20260508202152 48 268 1.7 4.3 0.00 0.00 0.00 51 1014.3
20260508201233 47 306 1.7 5.2 0.00 0.00 0.00 56 1014.4
20260508201152 47 306 1.7 5.2 0.00 0.00 0.00 56 1014.4
20260508200152 47 283 2.6 7.0 0.00 0.00 0.00 53 1014.5
20260508195152 49 278 1.7 4.3 0.00 0.00 0.00 50 1014.5
20260508194152 48 301 0.9 6.1 0.00 0.00 0.00 41 1014.4
20260508193229 48 283 1.7 5.2 0.00 0.00 0.00 1014.4
20260508193152 48 283 1.7 5.2 0.00 0.00 0.00 1014.4